"Pseudo-MPEC" for p00044

Created 2025 May 12 1:31:05 UT using Find_Orb

Click here for an explanation of pseudo-MPECs

 
 Astrometry: 
     p00044 * C2025 04 23.53721315 47 47.879+06 57 44.51   ~4NKH 21.59wXNEOCPF51
     p00044   C2025 04 23.55996515 47 47.999+06 57 45.31   ~4NKH 21.63wXNEOCPF51
     p00044   C2025 04 23.57132915 47 48.045+06 57 45.79   ~4NKH 21.74wXNEOCPF51

Station data:
(F51) Pan-STARRS 1, Haleakala  (N20.707234 W156.255910)  US/Hawaii.
   Observers J. Bulger, T. Lowe, A. Schultz, M. Willman. Measurers K.
   Chambers, S. Chastel, T. de Boer, L. Denneau, J. Fairlamb, H. Flewelling,
   M. Huber, C.-C. Lin, E. Magnier, Y. Ramanjooloo, R. Wainscoat, R. Weryk.
   1.8-m Ritchey-Chrétien + CCD.

Orbital elements:  p00044
   Perihelion 2025 Jul 12.51680 +/- 47.9 TT = 12:24:11 (JD 2460869.01680)
Epoch 2025 Apr 24.0 TT = JDT 2460789.5   Earth MOID: 0.0900      AutoNEOCP
M 336.89016720 +/- 22               (J2000 ecliptic)
n   0.29062829 +/- 0.273            Peri.  217.79260 +/- 90
a   2.25723850 +/- 1.41             Node    73.84667 +/- 44
e   0.5342836 +/- 0.252             Incl.   13.87119 +/- 6
P   3.39130                H 21.47  G  0.15   U 11.9  SR
q 1.05123284 +/- 0.445    Q 3.46324416 +/- 88.8
From 3 observations 2025 Apr. 23 (49.1 min); mean residual 0".06
Residuals in arcseconds: 
250423 F51  .04-  .02+    250423 F51  .11+  .05-    250423 F51  .07-  .03+    

Ephemerides (geocentric):
Date (UTC) HH   RA             Dec           delta  r     elong  mag " sig PA
---- --------  ------------   ------------  ------ ------ -----  --- --------
2025 05 12 02  15 45 44.443   +05 10 13.23  .28837 1.2783 155.6 20.3  68d  87
2025 05 12 03  15 45 43.345   +05 09 34.42  .28806 1.2780 155.6 20.3  68d  87
2025 05 12 04  15 45 42.243   +05 08 55.45  .28774 1.2777 155.6 20.3  68d  87
2025 05 12 05  15 45 41.137   +05 08 16.32  .28743 1.2775 155.6 20.3  69d  88
2025 05 12 06  15 45 40.027   +05 07 37.04  .28712 1.2772 155.6 20.3  69d  88
2025 05 12 07  15 45 38.914   +05 06 57.60  .28681 1.2769 155.6 20.3  69d  88
2025 05 12 08  15 45 37.796   +05 06 18.01  .28650 1.2767 155.7 20.3  69d  88
2025 05 12 09  15 45 36.675   +05 05 38.25  .28619 1.2764 155.7 20.3  69d  88
2025 05 12 10  15 45 35.550   +05 04 58.34  .28588 1.2762 155.7 20.2  69d  88
2025 05 12 11  15 45 34.421   +05 04 18.27  .28556 1.2759 155.7 20.2  69d  88
2025 05 12 12  15 45 33.288   +05 03 38.04  .28525 1.2756 155.7 20.2  69d  88
2025 05 12 13  15 45 32.151   +05 02 57.66  .28494 1.2754 155.7 20.2  69d  88
2025 05 12 14  15 45 31.011   +05 02 17.11  .28463 1.2751 155.7 20.2  69d  88
2025 05 12 15  15 45 29.866   +05 01 36.40  .28432 1.2748 155.8 20.2  69d  88
2025 05 12 16  15 45 28.718   +05 00 55.53  .28401 1.2746 155.8 20.2  69d  88
2025 05 12 17  15 45 27.565   +05 00 14.50  .28370 1.2743 155.8 20.2  69d  88
2025 05 12 18  15 45 26.409   +04 59 33.31  .28339 1.2741 155.8 20.2  69d  88
2025 05 12 19  15 45 25.249   +04 58 51.96  .28308 1.2738 155.8 20.2  69d  88
2025 05 12 20  15 45 24.086   +04 58 10.45  .28277 1.2735 155.8 20.2  69d  88
2025 05 12 21  15 45 22.918   +04 57 28.77  .28246 1.2733 155.8 20.2  69d  88
2025 05 12 22  15 45 21.746   +04 56 46.93  .28216 1.2730 155.9 20.2  69d  88
2025 05 12 23  15 45 20.571   +04 56 04.93  .28185 1.2728 155.9 20.2  69d  88
2025 05 13 00  15 45 19.391   +04 55 22.76  .28154 1.2725 155.9 20.2  69d  88
2025 05 13 01  15 45 18.208   +04 54 40.43  .28123 1.2722 155.9 20.2  69d  88
2025 05 13 02  15 45 17.021   +04 53 57.93  .28092 1.2720 155.9 20.2  69d  88
2025 05 13 03  15 45 15.830   +04 53 15.27  .28061 1.2717 155.9 20.2  69d  88
2025 05 13 04  15 45 14.635   +04 52 32.44  .28031 1.2714 155.9 20.2  69d  88
2025 05 13 05  15 45 13.436   +04 51 49.45  .28000 1.2712 155.9 20.2  70d  88
2025 05 13 06  15 45 12.234   +04 51 06.29  .27969 1.2709 156.0 20.2  70d  88
2025 05 13 07  15 45 11.027   +04 50 22.96  .27938 1.2707 156.0 20.2  70d  88
2025 05 13 08  15 45 09.817   +04 49 39.47  .27907 1.2704 156.0 20.2  70d  88
2025 05 13 09  15 45 08.602   +04 48 55.80  .27877 1.2701 156.0 20.2  70d  88
2025 05 13 10  15 45 07.384   +04 48 11.97  .27846 1.2699 156.0 20.2  70d  88
2025 05 13 11  15 45 06.162   +04 47 27.97  .27815 1.2696 156.0 20.2  70d  88
2025 05 13 12  15 45 04.936   +04 46 43.80  .27785 1.2694 156.0 20.2  70d  88
2025 05 13 13  15 45 03.706   +04 45 59.47  .27754 1.2691 156.1 20.2  70d  88
2025 05 13 14  15 45 02.472   +04 45 14.96  .27723 1.2688 156.1 20.2  70d  88
2025 05 13 15  15 45 01.234   +04 44 30.28  .27693 1.2686 156.1 20.2  70d  88
2025 05 13 16  15 44 59.992   +04 43 45.43  .27662 1.2683 156.1 20.2  70d  88
2025 05 13 17  15 44 58.747   +04 43 00.40  .27632 1.2681 156.1 20.2  70d  88
2025 05 13 18  15 44 57.497   +04 42 15.21  .27601 1.2678 156.1 20.2  70d  88
2025 05 13 19  15 44 56.244   +04 41 29.84  .27571 1.2675 156.1 20.1  71d  88
2025 05 13 20  15 44 54.986   +04 40 44.31  .27540 1.2673 156.1 20.1  71d  88
2025 05 13 21  15 44 53.725   +04 39 58.59  .27510 1.2670 156.2 20.1  71d  88
2025 05 13 22  15 44 52.460   +04 39 12.71  .27479 1.2668 156.2 20.1  71d  88
2025 05 13 23  15 44 51.190   +04 38 26.65  .27449 1.2665 156.2 20.1  71d  88
2025 05 14 00  15 44 49.917   +04 37 40.41  .27418 1.2662 156.2 20.1  71d  88
2025 05 14 01  15 44 48.640   +04 36 54.00  .27388 1.2660 156.2 20.1  71d  88